星链-34004 (STARLINK-34004)

导读

STARLINK-34004是美国SpaceX公司星链星座的一颗卫星,于2025年5月13日发射升空。星链项目旨在构建全球卫星互联网星座,为全球偏远及网络覆盖不足区域提供高速宽带服务。该卫星加入后,进一步扩充了星链在轨卫星规模,提升了星座服务的覆盖能力与稳定性,助力全球互联网络布局完善。

基本信息
目录编号:
63941
目录名称:
STARLINK-34004
国际标识:
2025-098R
轨道中心:
EARTH
卫星名称:
星链-34004
卫星全名:
星链-34004 (STARLINK-34004)
卫星状态:
在轨 (已飞行479 天)
发射日期:
2025-05-13 UTC
国别 :
美国 (US)
星等 :
--
轨道信息
数据来源 国际轨道数据
星历时间: 2026-09-04T04:00:02+0800
8小时前
查看轨道信息
半长轴: 6881.319km
偏心率: 0.0005069
轨道倾角: 70.002°
近地点辐角 293.502°
升交点赤经 184.998°
平近点角 88.675°
近地点: 499.693km
远地点: 506.671km
周期: 94.682分钟
每日圈数: 15.208811
详细信息
固有亮度:
5
最大亮度:
2.5
卫星平台:
Starlink V1.0
覆盖范围:
全球
运营商:
太空探索技术公司
运营商所在国:
美国
制造商(研发单位):
太空探索技术公司
制造商所在国:
美国
使用方式:
暂无
卫星简介
Starlink 计划是 SpaceX 推出的全球卫星互联网项目,通过发射低轨道卫星,为全球尤其是偏远地区提供高速、低延迟的互联网服务。自 2019 年起,Starlink 已部署数千颗卫星,旨在缩小全球数字鸿沟,推动互联网普及。该项目还为军事、航空等行业提供通信支持,带来广泛经济效益。
2D轨道图
3D轨道图
轨道高度分析图
轨道倾角分析图
轨道综合分析图
查看轨道综合分析图
交会数据列表
事件ID 空间交会对象 最接近时刻(TCA) 交会距离 交会风险概率(CRP) 交会风险指数(CRI) 操作
CDM_260904-070405-965606-394121
2026-09-04T
07:04:52+0000
0.507 km
远距离
1.366302E-4 高风险 0.78
CDM_260830-005206-394106-402622
2026-08-30T
00:52:06+0000
0.652 km
远距离
1.013712E-4 高风险 0.75
CDM_260904-143706-394106-418021
2026-09-04T
14:37:45+0000
0.864 km
远距离
4.090084E-5 中风险 0.67
CDM_260904-205206-394106-583621
2026-09-04T
20:52:44+0000
2.432 km
极远距离
1.712787E-6 低风险 0.4
CDM_260830-022806-394106-402622
2026-08-30T
02:28:14+0000
2.534 km
极远距离
1.659668E-6 低风险 0.39
CDM_260904-222606-394106-583621
2026-09-04T
22:26:33+0000
2.725 km
极远距离
1.415102E-6 低风险 0.38
CDM_260904-161106-394106-418021
2026-09-04T
16:11:45+0000
2.790 km
极远距离
1.374051E-6 低风险 0.38
CDM_260828-131700-353006-394122
2026-08-28T
13:17:48+0000
2.922 km
极远距离
1.285994E-6 低风险 0.37
CDM_260904-090505-963606-394121
2026-09-04T
09:05:19+0000
2.856 km
极远距离
7.401203E-7 极低风险 0.32